This demonstration page uses our WeatherBlox Daily Observations layout. Learn more.

Left ArrowRight Arrow

47.50024, -111.30081

Hourly Observations for May 4, 2019

Temp ( °F °C ) Dew Point ( °F °C ) Humidity (%) Winds ( mph kmh ) Pressure ( in mb ) Visibility ( mi km ) Precip ( " mm )
12:53 am 00:53 Clear 47 8.3 29 -1.7 50 50 S 3 6 29.87 1012 10 16 0.00 0.00
1:53 am 01:53 Clear 42 5.6 31 -0.6 65 65 N 12 19 29.89 1012 10 16 0.00 0.00
2:53 am 02:53 Clear 37 2.8 33 0.6 86 86 N 9 15 29.93 1014 10 16 0.00 0.00
3:53 am 03:53 Clear 32 0 30 -1.1 92 92 N 8 13 29.97 1015 10 16 0.00 0.00
4:53 am 04:53 Mostly Cloudy 31 -0.6 29 -1.7 92 92 NW 6 9 29.98 1015 10 16 0.00 0.00
5:53 am 05:53 Clear 27 -2.8 27 -2.8 100 100 WSW 6 9 29.98 1015 10 16 0.00 0.00
6:53 am 06:53 Sunny 30 -1.1 29 -1.7 96 96 WSW 3 6 29.96 1015 10 16 0.00 0.00
7:53 am 07:53 Sunny 35 1.7 30 -1.1 82 82 N 5 7 29.96 1015 10 16 0.00 0.00
8:53 am 08:53 Sunny 39 3.9 31 -0.6 73 73 Calm 29.95 1014 10 16 0.00 0.00
9:53 am 09:53 Sunny 44 6.7 32 0 63 63 VRB 3 6 29.93 1014 10 16 0.00 0.00
10:53 am 10:53 Sunny 48 8.9 33 0.6 56 56 undefined N/A 29.93 1013 10 16 0.00 0.00
11:53 am 11:53 Sunny 52 11.1 33 0.6 49 49 VRB 5 7 29.89 1012 10 16 0.00 0.00
12:53 pm 12:53 Sunny 57 13.9 35 1.7 44 44 VRB 6 9 29.87 1011 10 16 0.00 0.00
1:53 pm 13:53 Sunny 60 15.6 33 0.6 36 36 undefined N/A 29.85 1011 10 16 0.00 0.00
2:53 pm 14:53 Sunny 60 15.6 34 1.1 38 38 ENE 12 19 29.86 1011 10 16 0.00 0.00
3:53 pm 15:53 Partly Cloudy 58 14.4 34 1.1 41 41 E 14 22 29.87 1012 10 16 0.00 0.00
4:05 pm 16:05 Mostly Cloudy 58 14.4 34 1.1 41 41 ENE 13 20 29.75 1007 10 16 0.00 0.00
4:53 pm 16:53 Cloudy 57 13.9 34 1.1 42 42 ENE 10 17 29.88 1012 10 16 0.00 0.00
5:53 pm 17:53 Cloudy 54 12.2 35 1.7 49 49 ENE 16 26 29.90 1013 10 16 0.00 0.00
6:53 pm 18:53 Sunny 53 11.7 34 1.1 48 48 ENE 13 20 29.90 1013 10 16 0.00 0.00
7:53 pm 19:53 Sunny 48 8.9 35 1.7 61 61 ENE 16 26 29.91 1013 10 16 0.00 0.00
8:53 pm 20:53 Clear 45 7.2 35 1.7 68 68 ENE 18 30 29.91 1013 10 16 0.00 0.00
9:53 pm 21:53 Clear 42 5.6 34 1.1 73 73 NE 12 19 29.93 1013 10 16 0.00 0.00
10:53 pm 22:53 Clear 38 3.3 33 0.6 83 83 NNE 16 26 29.95 1014 10 16 0.00 0.00
11:53 pm 23:53 Mostly Cloudy 38 3.3 33 0.6 83 83 N 10 17 29.96 1015 10 16 0.00 0.00

Powered by AerisWeather